{"data":{"norad_id":65440,"intl_designator":"2025-194G","name":"STARLINK-35050","alt_names":[],"object_type":"PAYLOAD","status":"ACTIVE","operator":null,"country":"US","launch_date":"2025-09-03","launch_site_code":"AFWTR","launch_vehicle":null,"mission":null,"orbit_class":"UNKNOWN","rcs_meters":null,"size_class":null,"mass_kg":null,"dimensions":null,"purposes":["comms"],"wikipedia_slug":null,"has_3d_model":false,"image_url":null,"decayed_at":null,"tle_current":{"epoch":"2026-09-20T13:58:31.669536Z","epoch_age_seconds":107796,"freshness":"FRESH","line1":"1 65440U 25194G   26263.58231099  .00008991  00000+0  28048-3 0  9997","line2":"2 65440  97.2845 113.2749 0002001  92.4065 267.7407 15.33445516 59084","mean_motion":15.33445516,"eccentricity":0.0002001,"inclination_deg":97.2845,"raan_deg":113.2749,"arg_perigee_deg":92.4065,"mean_anomaly_deg":267.7407,"bstar":0.00028048,"rev_number":5908,"period_min":93.906173057667,"perigee_km":464.17221912989,"apogee_km":466.91105932131,"semimajor_km":6843.6786392256,"source":"CELESTRAK","updated_at":"2026-09-21T09:00:35.609580Z"}}}